Meteo Giornale » Osservazioni meteo Gran Bretagna » Londra City AP

ore: 04:50 - Osservazioni Meteo Londra City AP
Lat. 51° 30' N Lon. 0° 30' W Alt. 5 metri s.l.m.

molto_nuvoloso Europe/London

17 °C

Molto Nuvoloso

Temp. 24 Ore

17 °C

21 °C

Ovest/Sud-Ovest

18.5 Km/h

Dew point 15 °C

Umidità 88 %

Visibilità  10 Km

Il sole sorge alle ore 05:18

Il sole tramonta alle ore 20:58

Data e Ora Cielo e Fenomeni T °C DP °C Um. % Pres. hPa Vis. km Vento km/h
Oggi h: 04:50 molto_nuvoloso Molto Nuvoloso 17 15 88 1006 10 O/SO 18.5
Oggi h: 04:20 molto_nuvoloso Molto Nuvoloso 17 15 88 1006 10 O/SO 16.7
Oggi h: 03:50 coperto Coperto 17 16 93 1006 10 O/SO 16.7
Oggi h: 03:20 coperto Coperto 17 16 93 1006 10 O/SO 13
Oggi h: 02:50 coperto Coperto 17 16 93 1006 10 O/SO 13
Oggi h: 02:20 molto_nuvoloso Molto Nuvoloso 17 16 93 1006 10 O/SO 11.1
Oggi h: 01:50 molto_nuvoloso Molto Nuvoloso 17 16 93 1006 10 O/SO 11.1
Oggi h: 01:20 coperto Coperto 17 16 93 1006 10 SO 7.4
Oggi h: 00:50 coperto_pioggia Pioggia Debole 17 16 93 1007 7 SO 7.4
Oggi h: 00:20 coperto_pioggia Pioggia 17 16 93 1007 3 SO 9.3
Ieri h: 23:50 molto_nuvoloso Molto Nuvoloso 18 15 82 1007 10 S/SO 14.8
Ieri h: 23:20 coperto Coperto 18 15 82 1007 10 S/SO 9.3
Ieri h: 22:50 molto_nuvoloso Molto Nuvoloso 18 15 82 1007 10 SO 11.1
Ieri h: 22:20 molto_nuvoloso Molto Nuvoloso 18 14 77 1007 10 S/SO 13
Ieri h: 21:50 coperto Coperto 18 14 77 1007 10 S 11.1
Ieri h: 21:20 molto_nuvoloso Molto Nuvoloso 18 14 77 1007 10 S/SO 14.8
Ieri h: 20:50 poco_nuvoloso Poco Nuvoloso 19 14 72 1007 10 S/SO 14.8
Ieri h: 20:20 nuvoloso Nuvoloso 19 14 72 1007 10 S/SO 16.7
Ieri h: 19:50 nuvoloso Nuvoloso 20 14 68 1007 10 S/SO 14.8
Ieri h: 19:20 nuvoloso Nuvoloso 20 14 68 1007 10 SO 16.7
Ieri h: 18:50 poco_nuvoloso Poco Nuvoloso 20 14 68 1007 10 SO 18.5
Ieri h: 18:20 nuvoloso Nuvoloso 21 14 64 1007 10 S/SO 20.3
Ieri h: 17:50 coperto_pioggia Pioggia Debole 21 14 64 1007 10 S/SO 18.5
Ieri h: 17:20 sereno Sereno 21 14 64 1007 10 S/SO 16.7
Ieri h: 16:50 nuvoloso Nuvoloso 21 15 68 1007 10 S/SO 20.3
Ieri h: 16:20 molto_nuvoloso Molto Nuvoloso 21 14 64 1007 10 SO 14.8
Ieri h: 15:50 nuvoloso Nuvoloso 21 15 68 1008 10 SO 14.8
Ieri h: 15:20 nuvoloso Nuvoloso 20 16 77 1008 10 SO 16.7
Ieri h: 14:50 poco_nuvoloso Poco Nuvoloso 19 16 82 1008 10 S 13
Ieri h: 14:20 poco_nuvoloso Poco Nuvoloso 19 16 82 1008 10 S/SO 11.1
Ieri h: 13:50 coperto_pioggia Pioggia Debole 18 15 82 1009 10 S/SO 14.8
Ieri h: 13:20 coperto_pioggia Rovescio di Grandine 18 15 82 1009 5 O/SO 24
Ieri h: 12:50 molto_nuvoloso Molto Nuvoloso 21 14 64 1009 10 S 11.1
Ieri h: 12:20 nuvoloso Nuvoloso 21 14 64 1009 10 S/SO 13
Ieri h: 11:50 nuvoloso Nuvoloso 21 14 64 1009 10 S/SO 14.8
Ieri h: 11:20 molto_nuvoloso Molto Nuvoloso 21 14 64 1009 10 S 11.1
Ieri h: 10:50 poco_nuvoloso Poco Nuvoloso 20 13 64 1009 10 O/SO 13
Ieri h: 10:20 sereno Sereno 19 13 68 1009 10 SO 13
Ieri h: 09:50 sereno Sereno 19 13 68 1009 10 O/SO 16.7
Ieri h: 09:20 sereno Sereno 19 13 68 1009 10 O/SO 16.7
Ieri h: 08:50 sereno Sereno 19 13 68 1009 10 O/SO 16.7
Ieri h: 08:20 sereno Sereno 19 13 68 1009 10 SO 11.1
Ieri h: 07:50 sereno Sereno 19 13 68 1009 10 O 13
Ieri h: 07:20 coperto_pioggia Pioggia Debole 18 13 72 1009 10 O 9.3
Ieri h: 06:50 sereno Sereno 17 13 77 1009 10 SO 7.4
Ieri h: 06:20 coperto_pioggia Pioggia Debole 17 13 77 1009 10 O 11.1
Ieri h: 05:50 nuvoloso Nuvoloso 17 13 77 1009 10 SO 16.7